Regional Weather Roundup
Issued by NWS

Home | Current Version | Previous Version | Text Only | Print | Product List | Glossary Off
Versions: 1 2 3 4 5 6 7 8 9 10 11 12 13 14 15 16 17 18 19 20 21 22 23 24 25 26 27 28 29 30 31 32 33 34 35 36 37 38 39 40 41 42 43 44 45 46 47 48 49 50

838
ASUS43 KFSD 260402
RWRSD

WEATHER ROUNDUP FOR SOUTH DAKOTA
NATIONAL WEATHER SERVICE SIOUX FALLS SD
1000 PM CST SAT FEB 25 2017

NOTE: "FAIR" INDICATES FEW OR NO CLOUDS BELOW 12,000 FEET WITH NO
SIGNIFICANT WEATHER AND/OR OBSTRUCTIONS TO VISIBILITY.


SDZ001>005-009-010-012>017-260500-
NORTHWEST AND NORTH CENTRAL SOUTH DAKOTA

CITY           SKY/WX    TMP DP  RH WIND       PRES   REMARKS
BUFFALO          N/A     19  16  88 W9        29.60S WCI   8
FAITH            N/A     26  21  81 W14       29.69S WCI  14
MOBRIDGE       LGT SNOW  27  20  75 CALM      29.69R
$$

SDZ012>016-024>037-041>051-057-063-072>074-260500-
SOUTHWEST AND SOUTH CENTRAL SOUTH DAKOTA

CITY           SKY/WX    TMP DP  RH WIND       PRES   REMARKS
RAPID CTY ARPT CLEAR     19  16  88 NW9       29.72R WCI   8
PIERRE         CLOUDY    25  21  85 SW5       29.75R WCI  19
CUSTER         CLEAR     11   4  73 W3        29.62R
ELLSWORTH AFB  PTCLDY    18  17  93 NW17      29.72R WCI   3
PHILIP         MOCLDY    23  18  81 W6        29.74S WCI  16
PINE RIDGE     CLEAR     17   8  67 W7        29.74R WCI   8
SPEARFISH      MOCLDY    23  18  80 W8        29.69S HAZE    WCI  14
WINNER         MOCLDY    27  19  72 SW8       29.76S WCI  19
$$

SDZ004>011-016>023-039-040-260500-
NORTHEAST SOUTH DAKOTA

CITY           SKY/WX    TMP DP  RH WIND       PRES   REMARKS
ABERDEEN       PTCLDY    20  17  88 CALM      29.74S
WATERTOWN      CLOUDY    25  22  88 SW12      29.72R WCI  14
BROOKINGS      CLOUDY    25  21  85 SW10      29.75F WCI  15
SISSETON         N/A     27  25  92 N6        29.72F WCI  20
$$

SDZ017-020-022-023-036>040-048>070-260500-
SOUTHEAST SOUTH DAKOTA

CITY           SKY/WX    TMP DP  RH WIND       PRES   REMARKS
SIOUX FALLS    CLOUDY    24  19  81 SW9       29.80S WCI  14
HURON          CLOUDY    24  22  91 SW6       29.77S WCI  17
CHAMBERLAIN    MOCLDY    29  26  88 SW6       29.77S WCI  23
MITCHELL       PTCLDY    27  21  78 SW12      29.79F WCI  17
YANKTON        CLOUDY    27  18  69 SW8       29.82F WCI  18
$$

ABBREVIATIONS USED IN REMARKS
   TC - TEMPERATURE IN CELSIUS
  WCI - WIND CHILL INDEX
   HX - HEAT INDEX
  VSB - VISIBILITY





USA.gov is the U.S. government's official web portal to all federal, state and local government web resources and services.